Starlink 33584

operational
NORAD ID: 62761 Int'l Des: 2025-015 Owner: SPXS Country: US Constellation: starlink
LEOCIRCULAR

About Starlink 33584

Description loading...

Live Position

Loading 3D Globe...

Upcoming Passes

Altitude History

Altitude vs Time

uPlot chart will show altitude changes over time

Two-Line Element Set

1 62761U 25015D 25305.02875963 .00041504 00000-0 14052-2 0 9998
2 62761 53.1601 199.9998 0001248 94.2608 265.8535 15.30209512 44783
Epoch: Nov 1, 2025 • Age: 35 hours

Current Status

Altitude 484.7 km
Velocity 7.62 km/s
Sub-Earth Point -30.72°S, 175.46°E
Launch Date Jan 21, 2025
Age 0.7 years
Type internet

Technical Details

Classification Payload
Mass 575.00 kg
Dry Mass 530.00 kg
Total Mass 575.00 kg
Length 0.30 m
Diameter 4.10 m
Span 29.00 m
Shape Box + pan
Manufacturer SPXS
Bus Type Starlink V2MO
Phase Status In Orbit
Owner/State SPXS/US

Large Constellations

Loading constellations...